Regional Weather Roundup
Issued by NWS

Home | Current Version | Previous Version | Graphics & Text | Print | Product List | Glossary On
Versions: 1 2 3 4 5 6 7 8 9 10 11 12 13 14 15 16 17 18 19 20 21 22 23 24 25 26 27 28 29 30 31 32 33 34 35 36 37 38 39 40 41 42 43 44 45 46 47 48 49 50
000
ASUS43 KFSD 211510
RWRSD

WEATHER ROUNDUP FOR SOUTH DAKOTA
NATIONAL WEATHER SERVICE SIOUX FALLS SD
900 AM CST WED FEB 21 2018

NOTE: "FAIR" INDICATES FEW OR NO CLOUDS BELOW 12,000 FEET WITH NO
SIGNIFICANT WEATHER AND/OR OBSTRUCTIONS TO VISIBILITY.


SDZ001>005-009-010-012>017-211600-
NORTHWEST AND NORTH CENTRAL SOUTH DAKOTA

CITY           SKY/WX    TMP DP  RH WIND       PRES   REMARKS
BUFFALO          N/A     -5 -15  62 W9        30.19R WCI -22
FAITH            N/A     -8 -14  74 SW6       30.34R WCI -21
MOBRIDGE       SUNNY     -6 -14  68 CALM      30.40R
$$

SDZ012>016-024>037-041>051-057-063-072>074-211600-
SOUTHWEST AND SOUTH CENTRAL SOUTH DAKOTA

CITY           SKY/WX    TMP DP  RH WIND       PRES   REMARKS
RAPID CTY ARPT FLURRIES -15 -18  86 SE3       30.28R
PIERRE         SUNNY    -11 -13  91 CALM      30.45R
CUSTER         MOSUNNY    0  -9  65 W6        30.09R WCI -12
ELLSWORTH AFB  MOSUNNY   -9 -15  77 CALM      30.25R
PHILIP         SUNNY    -16 -20  82 W6        30.40S WCI -31
PINE RIDGE     SUNNY    -11 -13  91 CALM      30.31R
SPEARFISH        N/A     -2  -9  71 CALM      30.20S
WINNER         FAIR      -2 -11  65 S7        30.46R WCI -15
$$

SDZ004>011-016>023-039-040-211600-
NORTHEAST SOUTH DAKOTA

CITY           SKY/WX    TMP DP  RH WIND       PRES   REMARKS
ABERDEEN       SUNNY    -12 -18  74 S7        30.50R WCI -27
WATERTOWN      CLOUDY    -6 -10  83 S3        30.47R
BROOKINGS      CLOUDY    -4 -10  75 S6        30.51  WCI -16
SISSETON         N/A      7  -7  52 W8        30.47R WCI  -6
$$

SDZ017-020-022-023-036>040-048>070-211600-
SOUTHEAST SOUTH DAKOTA

CITY           SKY/WX    TMP DP  RH WIND       PRES   REMARKS
SIOUX FALLS    CLOUDY     0  -6  76 SW3       30.55R
HURON          SUNNY      0  -8  69 SE6       30.54R WCI -12
CHAMBERLAIN    SUNNY     -6 -12  77 CALM      30.51R
MITCHELL       SUNNY      0  -8  69 S6        30.56R WCI -12
YANKTON        CLOUDY    -1  -5  82 CALM      30.58R
$$

ABBREVIATIONS USED IN REMARKS
   TC - TEMPERATURE IN CELSIUS
  WCI - WIND CHILL INDEX
   HX - HEAT INDEX
  VSB - VISIBILITY





USA.gov is the U.S. government's official web portal to all federal, state and local government web resources and services.